FENGYUN 1C DEB, 31260

Orbit data source: Space-Track

FENGYUN 1C DEB, 31260 is space debris in SSO originally from a launch on Mon, 10 May 1999 UTC launched from the Taiyaun Space Center, China (TSC). Fengyun 1C debris stems from the Chinese weather satellite Fengyun-1C, which was intentionally destroyed by a Chinese anti-satellite missile in 2007. This event dramatically increased the amount of space debris, with thousands of trackable fragments posing hazards to satellites and human spaceflight. The Fengyun 1C debris cloud has become a focal point in discussions about space sustainability and the need for international regulations to prevent the creation of new debris.

Loading next visibility...
Identifier
31260, 1999-025BMS
Orbit
SSO
Country
Flag of CNCN / PRC
Related business
Manufacturer
Unknown
Mission
Spacecraft
Bus & Motor
Unknown
Mass
Unknown
Launch date (UTC)
1999-05-10 (27 years ago)
Launch vehicle
Unknown
Launch site
Taiyaun Space Center, China (TSC)
Object type
Payload
Rocket body
Debris
Shape & HBR
Unknown shape, 0.1 m
Radar Cross Section
Small (<0.1 m²)

Expand to show TLE details & history
Last TLE update: 2 days ago

TLE from 2 days ago
0 FENGYUN 1C DEB
1 31260U 99025BMS 26166.51492469  .00001818  00000-0  61601-3 0  9993
2 31260  98.9482  75.8391 0047906 106.3315  72.9635 14.37398880998472
Epoch: 2026-06-15T12:21Z
TLE epoch observation values (Epoch: 2026-06-15T12:21:29.493Z)
Latitude
0.06024°
Longitude
166.67544°
Altitude
760.148 km
Speed
7.479 km/s
True Right ascension
17h 03m 23s
True Declination
0° 03' 36"
Sunlit
Object was in full shadow at epoch
Visualization orbit readout
Latitude
Unknown
Longitude
Unknown
Altitude
Unknown
Speed
Unknown
Apparent Right ascension
Unknown
Apparent Declination
Unknown
Sunlit
N/A
Visualization observer readout
Local Sidereal Time
03:43:14
Azimuth
Unknown
Elevation
Unknown
Doppler factor
Unknown
Orbital elements
Apogee altitude
798.469 km
Perigee altitude
730.036 km
Semi-major axis
7,142.389 km
Eccentricity
0.00479
Inclination
98.9482°
RAAN
75.8391°
Arg. of periapsis
106.3315°
True anomaly
73.48929°
Mean anomaly
72.9635°
Eccentric anomaly
73.2263°
Mean motion
3.59565 °/min
Orbital period
100.12 mins
BSTAR
0.00061601
Loading maneuver chart data...
Computing Atmospheric mass density...

Documentation

Showing up to 5 results
|